Prairie Du Chien, WI

10:06 AM CDT on August 17, 2017 (GMT -0500)
Prairie Du Chien Municipal

Weather History for KPDC - November, 2014

Change the Weather History Date:

Thursday, November 6, 2014

  Actual Average Record
Temperature  
Mean Temperature 37 °F -  
Max Temperature 46 °F 50 °F 73 °F (2001)
Min Temperature 28 °F 31 °F 4 °F (1951)
Degree Days  
Heating Degree Days 28    
Moisture  
Dew Point 29 °F    
Average Humidity 70    
Maximum Humidity 87    
Minimum Humidity 53    
Precipitation  
Precipitation 0.00 in - - ()
Sea Level Pressure  
Sea Level Pressure 30.13 in    
Wind  
Wind Speed 11 mph (NW)    
Max Wind Speed 23 mph    
Max Gust Speed 31 mph    
Visibility 10 miles    
Events Rain    
Averages and records for this station are not official NWS values.
T = Trace of Precipitation, MM = Missing Value Source: NWS Daily Summary

Daily Weather History Graph

Daily Weather History Graph

Search for Another Location

Airport or City:

Trip Planner

Search our weather history database for the weather conditions in past years. The results will help you decide how hot, cold, wet, or windy it might be!

Date:

Astronomy

Nov. 06, 2014 Rise Set
Actual Time 6:45 AM CST 4:50 PM CST
Civil Twilight 6:15 AM CST 5:20 PM CST
Nautical Twilight 5:41 AM CST 5:53 PM CST
Astronomical Twilight 5:08 AM CST 6:27 PM CST
Moon 4:58 PM CST (11/6) 6:16 AM CST (11/6)
Length of Visible Light 11h 04m
Length of Day
10h 04m
Full, 100% of the Moon is Illuminated
Nov 6
Full
Nov 6
Full
Nov 14
Last Quarter
Nov 22
New
Nov 29
First Quarter

Hourly Weather History & Observations

Time (CST) Temp. Windchill Dew Point Humidity Pressure Visibility Wind Dir Wind Speed Gust Speed Precip Events Conditions
12:15 AM 46.6 °F - 38.1 °F 72% 29.85 in 10.0 mi WNW 12.7 mph 18.4 mph N/A   Overcast
12:35 AM 46.4 °F 42.4 °F 38.3 °F 73% 29.85 in 10.0 mi NW 8.1 mph - N/A   Overcast
12:55 AM 46.4 °F 40.4 °F 38.3 °F 73% 29.85 in 10.0 mi WNW 13.8 mph - N/A   Overcast
1:15 AM 45.9 °F 39.7 °F 38.8 °F 76% 29.85 in 10.0 mi WNW 13.8 mph - N/A   Overcast
1:35 AM 45.5 °F 40.3 °F 39.2 °F 79% 29.85 in 10.0 mi WNW 10.4 mph - N/A   Overcast
1:55 AM 44.6 °F 40.2 °F 40.3 °F 85% 29.86 in 10.0 mi WNW 8.1 mph - N/A Rain Light Rain
2:15 AM 44.6 °F 39.7 °F 40.5 °F 85% 29.86 in 10.0 mi WNW 9.2 mph - N/A Rain Light Rain
2:35 AM 44.1 °F 39.0 °F 40.5 °F 87% 29.87 in 7.0 mi NW 9.2 mph - N/A Rain Rain
2:55 AM 43.9 °F 38.3 °F 40.3 °F 87% 29.88 in 7.0 mi NW 10.4 mph 16.1 mph N/A   Light Drizzle
3:15 AM 43.2 °F 36.2 °F 38.5 °F 84% 29.89 in 10.0 mi NW 13.8 mph 23.0 mph N/A Rain Rain
3:35 AM 42.8 °F 35.4 °F 37.6 °F 82% 29.90 in 10.0 mi NNW 15.0 mph 23.0 mph N/A Rain Light Rain
3:55 AM 41.9 °F 34.0 °F 36.7 °F 82% 29.91 in 10.0 mi NNW 16.1 mph 25.3 mph N/A   Light Drizzle
4:15 AM 41.5 °F 33.8 °F 37.0 °F 84% 29.92 in 10.0 mi NW 15.0 mph 21.9 mph N/A   Light Drizzle
4:35 AM 40.5 °F 30.9 °F 34.9 °F 80% 29.95 in 10.0 mi NW 20.7 mph 28.8 mph N/A   Light Drizzle
4:55 AM 39.9 °F 30.5 °F 32.9 °F 76% 29.96 in 10.0 mi NW 19.6 mph 31.1 mph N/A   Overcast
5:15 AM 39.4 °F 29.0 °F 32.5 °F 76% 29.98 in 10.0 mi NNW 23.0 mph 28.8 mph N/A   Overcast
5:35 AM 39.2 °F 29.6 °F 32.2 °F 76% 29.99 in 10.0 mi NNW 19.6 mph 26.5 mph N/A   Overcast
5:55 AM 39.2 °F 29.0 °F 32.0 °F 75% 30.00 in 10.0 mi NW 21.9 mph 26.5 mph N/A   Overcast
6:15 AM 39.0 °F 29.6 °F 32.0 °F 76% 30.02 in 10.0 mi NNW 18.4 mph 28.8 mph N/A   Overcast
6:35 AM 38.8 °F 29.4 °F 31.8 °F 76% 30.04 in 10.0 mi NW 18.4 mph 25.3 mph N/A   Overcast
6:55 AM 38.7 °F 29.5 °F 31.6 °F 76% 30.05 in 10.0 mi NW 17.3 mph 26.5 mph N/A   Overcast
7:15 AM 38.7 °F 30.5 °F 31.1 °F 74% 30.06 in 10.0 mi NW 13.8 mph 25.3 mph N/A   Overcast
7:35 AM 38.7 °F 29.5 °F 31.1 °F 74% 30.08 in 10.0 mi NNW 17.3 mph 25.3 mph N/A   Overcast
7:55 AM 38.8 °F 31.2 °F 31.1 °F 74% 30.09 in 10.0 mi NW 12.7 mph 23.0 mph N/A   Overcast
8:15 AM 38.8 °F 32.1 °F 30.9 °F 73% 30.10 in 10.0 mi NNW 10.4 mph 23.0 mph N/A   Overcast
8:55 AM 39.2 °F 29.8 °F 30.4 °F 71% 30.13 in 10.0 mi NW 18.4 mph 23.0 mph N/A   Overcast
9:15 AM 39.2 °F 33.0 °F 30.2 °F 70% 30.15 in 10.0 mi NNW 9.2 mph 21.9 mph N/A   Overcast
9:35 AM 39.4 °F 32.3 °F 30.4 °F 70% 30.16 in 10.0 mi NW 11.5 mph - N/A   Overcast
9:55 AM 39.7 °F 32.7 °F 30.4 °F 69% 30.17 in 10.0 mi NW 11.5 mph 18.4 mph N/A   Overcast
10:15 AM 40.1 °F 32.4 °F 30.2 °F 68% 30.17 in 10.0 mi NW 13.8 mph 17.3 mph N/A   Overcast
10:35 AM 40.1 °F 32.7 °F 30.0 °F 67% 30.19 in 10.0 mi NW 12.7 mph 19.6 mph N/A   Overcast
10:55 AM 40.5 °F 34.1 °F 29.1 °F 64% 30.19 in 10.0 mi NNW 10.4 mph 20.7 mph N/A   Overcast
11:15 AM 40.8 °F 34.5 °F 28.9 °F 63% 30.19 in 10.0 mi NW 10.4 mph - N/A   Overcast
11:35 AM 40.8 °F 32.6 °F 29.3 °F 64% 30.19 in 10.0 mi WNW 16.1 mph 21.9 mph N/A   Overcast
11:55 AM 41.0 °F 33.5 °F 29.1 °F 63% 30.20 in 10.0 mi NW 13.8 mph 17.3 mph N/A   Overcast
12:15 PM 41.2 °F 32.4 °F 26.4 °F 56% 30.20 in 10.0 mi NW 18.4 mph 23.0 mph N/A   Overcast
12:35 PM 41.2 °F 33.7 °F 27.1 °F 57% 30.21 in 10.0 mi NW 13.8 mph 18.4 mph N/A   Overcast
12:55 PM 41.2 °F 35.0 °F 27.3 °F 58% 30.22 in 10.0 mi NNW 10.4 mph - N/A   Overcast
1:15 PM 41.2 °F 34.1 °F 26.4 °F 56% 30.22 in 10.0 mi NNW 12.7 mph 23.0 mph N/A   Overcast
1:35 PM 41.5 °F 33.5 °F 25.5 °F 53% 30.22 in 10.0 mi NNW 16.1 mph 23.0 mph N/A   Overcast
1:55 PM 41.4 °F 34.7 °F 25.9 °F 54% 30.23 in 10.0 mi NNW 11.5 mph 17.3 mph N/A   Overcast
2:15 PM 41.2 °F 34.5 °F 25.5 °F 54% 30.23 in 10.0 mi NW 11.5 mph 15.0 mph N/A   Overcast
2:35 PM 41.4 °F 34.7 °F 25.9 °F 54% 30.23 in 10.0 mi WNW 11.5 mph 20.7 mph N/A   Overcast
2:55 PM 41.0 °F 33.5 °F 25.2 °F 53% 30.24 in 10.0 mi NW 13.8 mph 17.3 mph N/A   Overcast
3:15 PM 40.6 °F 33.0 °F 25.9 °F 56% 30.25 in 10.0 mi WNW 13.8 mph - N/A   Overcast
3:35 PM 40.1 °F 32.0 °F 25.5 °F 56% 30.25 in 10.0 mi WNW 15.0 mph 19.6 mph N/A   Overcast
3:55 PM 39.7 °F 32.7 °F 24.6 °F 55% 30.25 in 10.0 mi NNW 11.5 mph 16.1 mph N/A   Overcast
4:15 PM 39.4 °F 32.7 °F 24.4 °F 55% 30.25 in 10.0 mi NNW 10.4 mph 20.7 mph N/A   Overcast
4:35 PM 39.2 °F 33.6 °F 24.8 °F 56% 30.25 in 10.0 mi NNW 8.1 mph - N/A   Overcast
4:55 PM 39.0 °F 33.4 °F 24.8 °F 57% 30.26 in 10.0 mi NNW 8.1 mph - N/A   Overcast
5:15 PM 38.5 °F 33.4 °F 24.6 °F 58% 30.26 in 10.0 mi NNW 6.9 mph - N/A   Overcast
5:35 PM 37.8 °F 35.3 °F 24.3 °F 58% 30.26 in 10.0 mi NNW 3.5 mph - N/A   Scattered Clouds
5:55 PM 37.0 °F - 24.6 °F 61% 30.27 in 10.0 mi Calm Calm - N/A   Scattered Clouds
6:15 PM 37.2 °F - 25.3 °F 62% 30.27 in 10.0 mi Calm Calm - N/A   Mostly Cloudy
6:35 PM 37.0 °F 34.5 °F 24.8 °F 61% 30.27 in 10.0 mi NNW 3.5 mph - N/A   Mostly Cloudy
6:55 PM 36.7 °F - 25.0 °F 63% 30.27 in 10.0 mi Calm Calm - N/A   Mostly Cloudy
7:35 PM 35.1 °F - 24.4 °F 65% 30.27 in 10.0 mi Calm Calm - N/A   Clear
7:55 PM 33.6 °F - 24.8 °F 70% 30.28 in 10.0 mi Calm Calm - N/A   Mostly Cloudy
8:15 PM 35.8 °F 33.0 °F 25.3 °F 66% 30.27 in 10.0 mi NW 3.5 mph - N/A   Overcast
8:35 PM 34.9 °F 32.0 °F 25.2 °F 68% 30.28 in 10.0 mi NW 3.5 mph - N/A   Scattered Clouds
8:55 PM 33.6 °F - 25.2 °F 71% 30.28 in 10.0 mi Calm Calm - N/A   Clear
9:15 PM 32.9 °F - 24.8 °F 72% 30.28 in 10.0 mi Calm Calm - N/A   Clear
9:35 PM 30.2 °F - 24.3 °F 79% 30.28 in 10.0 mi Calm Calm - N/A   Clear
9:55 PM 29.8 °F - 24.8 °F 81% 30.28 in 10.0 mi Calm Calm - N/A   Clear
10:15 PM 30.0 °F - 24.8 °F 81% 30.28 in 10.0 mi Calm Calm - N/A   Clear
10:35 PM 29.3 °F - 24.4 °F 82% 30.28 in 10.0 mi Calm Calm - N/A   Clear
10:55 PM 28.4 °F 22.2 °F 24.1 °F 84% 30.27 in 10.0 mi ESE 5.8 mph - N/A   Clear
11:15 PM 28.9 °F - 24.3 °F 83% 30.26 in 10.0 mi Calm Calm - N/A   Clear
11:35 PM 28.0 °F - 23.2 °F 82% 30.26 in 10.0 mi Calm Calm - N/A   Clear
11:55 PM 28.0 °F - 23.4 °F 83% 30.25 in 10.0 mi Calm Calm - N/A   Clear